TimeEDT,TemperatureF,Dew PointF,Humidity,Sea Level PressureIn,VisibilityMPH,Wind Direction,Wind SpeedMPH,Gust SpeedMPH,PrecipitationIn,Events,Conditions,WindDirDegrees,DateUTC
12:53 AM,45.0,37.0,74,30.01,10.0,WSW,3.5,-,N/A,,Overcast,250,2011-10-21 04:53:00
1:53 AM,44.1,36.0,73,30.02,10.0,WSW,5.8,-,N/A,,Overcast,250,2011-10-21 05:53:00
2:53 AM,44.1,36.0,73,30.03,10.0,WSW,3.5,-,N/A,,Overcast,240,2011-10-21 06:53:00
3:53 AM,43.0,36.0,76,30.03,10.0,Calm,Calm,-,N/A,,Overcast,0,2011-10-21 07:53:00
4:53 AM,41.0,35.1,79,30.04,10.0,Calm,Calm,-,N/A,,Clear,0,2011-10-21 08:53:00
5:53 AM,39.2,33.8,81,30.04,10.0,Calm,Calm,-,N/A,,Clear,0,2011-10-21 09:53:00
6:53 AM,39.9,33.1,77,30.07,10.0,Calm,Calm,-,N/A,,Clear,0,2011-10-21 10:53:00
7:53 AM,37.9,34.0,86,30.08,10.0,Calm,Calm,-,N/A,,Clear,0,2011-10-21 11:53:00
8:53 AM,41.0,37.0,86,30.11,10.0,Calm,Calm,-,N/A,,Clear,0,2011-10-21 12:53:00
9:53 AM,44.1,37.9,79,30.12,10.0,Calm,Calm,-,N/A,,Clear,0,2011-10-21 13:53:00
10:53 AM,48.9,37.0,64,30.13,10.0,Variable,4.6,-,N/A,,Clear,0,2011-10-21 14:53:00
1:53 PM,-9999,-9999,N/A,30.11,-9999.0,North,-9999.0,-,N/A,,Unknown,0,2011-10-21 17:53:00
2:53 PM,55.0,35.1,47,30.10,10.0,Variable,5.8,16.1,N/A,,Mostly Cloudy,0,2011-10-21 18:53:00
3:53 PM,52.0,35.1,53,30.10,10.0,Variable,5.8,-,N/A,,Overcast,0,2011-10-21 19:53:00
4:53 PM,53.1,35.1,50,30.11,10.0,Calm,Calm,-,N/A,,Overcast,0,2011-10-21 20:53:00
5:53 PM,51.1,35.1,54,30.12,10.0,WNW,6.9,-,N/A,,Clear,300,2011-10-21 21:53:00
6:53 PM,48.9,35.1,59,30.13,10.0,Calm,Calm,-,N/A,,Clear,0,2011-10-21 22:53:00
7:53 PM,46.9,35.1,63,30.13,10.0,Calm,Calm,-,N/A,,Clear,0,2011-10-21 23:53:00
8:53 PM,46.9,35.1,63,30.14,10.0,Calm,Calm,-,N/A,,Clear,0,2011-10-22 00:53:00
9:53 PM,46.0,35.1,66,30.14,10.0,Calm,Calm,-,N/A,,Clear,0,2011-10-22 01:53:00
10:53 PM,44.1,35.1,71,30.14,10.0,Calm,Calm,-,N/A,,Clear,0,2011-10-22 02:53:00
11:53 PM,42.8,35.6,76,30.14,10.0,Calm,Calm,-,N/A,,Clear,0,2011-10-22 03:53:00